DLH8MF EDDH-EDDF

Flight info

Callsign DLH8MF
Flight time 0h 50m
Altitude 34000
Route AMLUH2G/33 AMLUH M852 DENIX DCT RIMET T157 KERAX KERAX5A
Aircraft A320/M-SDE3FGHIRWY/LB1

Departure

Time 2026-05-04 19:10
Airport Hamburg Helmut Schmidt Airport (EDDH)

Arrival

Time 2026-05-04 20:00
Airport Frankfurt Main Airport (EDDF)
Time Latitude Longitude Altitude Speed Heading
2026-05-04 18:51 53.63168 10.00368 48 ft 0 kts 86°
2026-05-04 19:00 53.63167 10.00349 48 ft 4 kts 86°
2026-05-04 19:00 53.63165 10.00303 48 ft 4 kts 86°
2026-05-04 19:00 53.63164 10.00258 46 ft 4 kts 88°
2026-05-04 19:00 53.63166 10.00214 47 ft 4 kts 112°
2026-05-04 19:01 53.63173 10.00192 43 ft 2 kts 146°
2026-05-04 19:01 53.63183 10.00182 44 ft 2 kts 161°
2026-05-04 19:02 53.63189 10.00179 47 ft 0 kts 172°
2026-05-04 19:04 53.63188 10.00179 47 ft 2 kts 172°
2026-05-04 19:04 53.63141 10.00188 46 ft 7 kts 175°
2026-05-04 19:04 53.63073 10.00186 48 ft 10 kts 199°
2026-05-04 19:05 53.63017 10.00128 48 ft 9 kts 212°
2026-05-04 19:05 53.62969 10.00077 47 ft 7 kts 212°
2026-05-04 19:05 53.62932 10.00025 48 ft 7 kts 233°
2026-05-04 19:05 53.62911 9.99961 48 ft 8 kts 242°
2026-05-04 19:06 53.62870 9.99826 45 ft 15 kts 243°
2026-05-04 19:06 53.62880 9.99735 45 ft 7 kts 329°
2026-05-04 19:06 53.62884 9.99732 45 ft 0 kts 332°
2026-05-04 19:09 53.62890 9.99726 43 ft 7 kts 332°
2026-05-04 19:09 53.63149 9.99502 45 ft 79 kts 333°
2026-05-04 19:09 53.63831 9.98912 48 ft 138 kts 333°
2026-05-04 19:09 53.64824 9.98057 428 ft 156 kts 333°
2026-05-04 19:10 53.65752 9.97275 1130 ft 156 kts 332°
2026-05-04 19:10 53.66746 9.96418 1631 ft 170 kts 332°
2026-05-04 19:10 53.67866 9.95448 1975 ft 192 kts 332°
2026-05-04 19:10 53.69190 9.94680 2367 ft 211 kts 353°
2026-05-04 19:11 53.70689 9.94661 2987 ft 218 kts 358°
2026-05-04 19:11 53.72214 9.94876 3705 ft 225 kts 17°
2026-05-04 19:11 53.73463 9.96487 4403 ft 235 kts 58°
2026-05-04 19:11 53.74044 9.99100 4918 ft 242 kts 76°
2026-05-04 19:12 53.74280 10.01903 5324 ft 245 kts 96°
2026-05-04 19:12 53.72994 10.07286 6488 ft 268 kts 124°
2026-05-04 19:12 53.72006 10.10085 7042 ft 284 kts 122°
2026-05-04 19:13 53.71014 10.13019 7838 ft 289 kts 122°
2026-05-04 19:13 53.70018 10.16003 8673 ft 293 kts 123°
2026-05-04 19:13 53.68780 10.18722 9540 ft 294 kts 139°
2026-05-04 19:13 53.67170 10.20794 10276 ft 296 kts 154°
2026-05-04 19:14 53.65190 10.22139 10553 ft 315 kts 169°
2026-05-04 19:14 53.62988 10.23098 10799 ft 337 kts 169°
2026-05-04 19:14 53.60688 10.24114 11371 ft 347 kts 168°
2026-05-04 19:14 53.58334 10.25172 12083 ft 352 kts 168°
2026-05-04 19:15 53.55957 10.26255 12809 ft 356 kts 168°
2026-05-04 19:15 53.53522 10.27371 13539 ft 360 kts 167°
2026-05-04 19:15 53.51087 10.28492 14214 ft 364 kts 167°
2026-05-04 19:15 53.48633 10.29622 14848 ft 367 kts 167°
2026-05-04 19:16 53.46985 10.30377 15257 ft 370 kts 167°
2026-05-04 19:16 53.44464 10.31530 15875 ft 374 kts 168°
2026-05-04 19:16 53.41937 10.32680 16508 ft 378 kts 168°
2026-05-04 19:16 53.39384 10.33836 17106 ft 382 kts 168°
2026-05-04 19:17 53.36804 10.34998 17706 ft 386 kts 168°
2026-05-04 19:17 53.34198 10.36169 18306 ft 390 kts 168°
2026-05-04 19:17 53.31557 10.37353 18849 ft 393 kts 168°
2026-05-04 19:17 53.28909 10.38539 19432 ft 395 kts 168°
2026-05-04 19:18 53.26263 10.39722 20077 ft 395 kts 168°
2026-05-04 19:18 53.23600 10.40908 20709 ft 396 kts 168°
2026-05-04 19:18 53.20938 10.42092 21275 ft 397 kts 169°
2026-05-04 19:18 53.18257 10.43286 21838 ft 400 kts 169°
2026-05-04 19:19 53.15565 10.44487 22370 ft 402 kts 169°
2026-05-04 19:19 53.12833 10.45305 22899 ft 399 kts 179°
2026-05-04 19:19 53.10063 10.45326 23402 ft 397 kts 188°
2026-05-04 19:19 53.07312 10.44929 23840 ft 398 kts 189°
2026-05-04 19:20 53.04537 10.44535 24257 ft 400 kts 189°
2026-05-04 19:20 53.01753 10.44149 24660 ft 402 kts 189°
2026-05-04 19:20 52.98953 10.43769 25050 ft 404 kts 189°
2026-05-04 19:20 52.96150 10.43390 25434 ft 405 kts 189°
2026-05-04 19:21 52.93333 10.43008 25814 ft 407 kts 189°
2026-05-04 19:21 52.90499 10.42625 26185 ft 409 kts 189°
2026-05-04 19:21 52.87663 10.42239 26547 ft 411 kts 189°
2026-05-04 19:21 52.84807 10.41848 26904 ft 413 kts 189°
2026-05-04 19:22 52.81895 10.41448 27270 ft 414 kts 189°
2026-05-04 19:22 52.79022 10.41057 27603 ft 416 kts 189°
2026-05-04 19:22 52.76127 10.40663 27938 ft 418 kts 189°
2026-05-04 19:22 52.73220 10.40267 28266 ft 420 kts 189°
2026-05-04 19:23 52.70305 10.39875 28574 ft 422 kts 189°
2026-05-04 19:23 52.67374 10.39483 28879 ft 423 kts 189°
2026-05-04 19:23 52.64468 10.39095 29167 ft 425 kts 189°
2026-05-04 19:23 52.61486 10.38692 29452 ft 426 kts 189°
2026-05-04 19:24 52.58514 10.38286 29733 ft 428 kts 189°
2026-05-04 19:24 52.55540 10.37880 29930 ft 428 kts 189°
2026-05-04 19:24 52.52641 10.37494 29962 ft 422 kts 189°
2026-05-04 19:25 52.46774 10.36720 29964 ft 419 kts 189°
2026-05-04 19:25 52.40967 10.35952 29973 ft 418 kts 189°
2026-05-04 19:26 52.35179 10.35175 29970 ft 418 kts 189°
2026-05-04 19:26 52.29374 10.34402 29955 ft 418 kts 189°
2026-05-04 19:27 52.23574 10.33634 29951 ft 418 kts 189°
2026-05-04 19:27 52.17772 10.32870 29950 ft 418 kts 189°
2026-05-04 19:28 52.11968 10.32115 29960 ft 418 kts 189°
2026-05-04 19:28 52.06172 10.31356 29947 ft 418 kts 189°
2026-05-04 19:29 52.00378 10.30585 29962 ft 417 kts 189°
2026-05-04 19:29 51.94594 10.29829 29972 ft 417 kts 189°
2026-05-04 19:30 51.88803 10.29072 29941 ft 418 kts 189°
2026-05-04 19:30 51.82963 10.28320 29953 ft 419 kts 189°
2026-05-04 19:31 51.77141 10.27572 29970 ft 420 kts 189°
2026-05-04 19:31 51.71307 10.26810 29972 ft 420 kts 189°
2026-05-04 19:32 51.65482 10.26049 29972 ft 421 kts 189°
2026-05-04 19:32 51.59648 10.25293 29950 ft 421 kts 189°
2026-05-04 19:32 51.56716 10.24918 29698 ft 422 kts 189°
2026-05-04 19:33 51.53790 10.24548 29413 ft 422 kts 189°
2026-05-04 19:33 51.50878 10.24180 28813 ft 417 kts 189°
2026-05-04 19:33 51.47998 10.23815 28171 ft 413 kts 188°
2026-05-04 19:33 51.45154 10.23453 27543 ft 408 kts 188°
2026-05-04 19:34 51.42335 10.23093 26928 ft 405 kts 188°
2026-05-04 19:34 51.39546 10.22739 26328 ft 401 kts 188°
2026-05-04 19:34 51.36725 10.22363 25717 ft 398 kts 190°
2026-05-04 19:34 51.34059 10.21279 25209 ft 399 kts 205°
2026-05-04 19:35 51.31506 10.19447 24809 ft 400 kts 206°
2026-05-04 19:35 51.28971 10.17580 24468 ft 400 kts 207°
2026-05-04 19:35 51.26377 10.15653 24139 ft 399 kts 207°
2026-05-04 19:35 51.23902 10.13808 23965 ft 398 kts 207°
2026-05-04 19:36 51.21428 10.11968 24001 ft 399 kts 207°
2026-05-04 19:36 51.18883 10.10082 23998 ft 399 kts 207°
2026-05-04 19:36 51.16392 10.08234 23996 ft 399 kts 207°
2026-05-04 19:36 51.13841 10.06345 23988 ft 399 kts 206°
2026-05-04 19:37 51.11356 10.04512 23996 ft 399 kts 206°
2026-05-04 19:37 51.08838 10.02661 23995 ft 398 kts 206°
2026-05-04 19:37 51.06324 10.00815 23995 ft 398 kts 206°
2026-05-04 19:37 51.03805 9.98967 23994 ft 398 kts 206°
2026-05-04 19:38 51.01290 9.97124 23906 ft 399 kts 206°
2026-05-04 19:38 50.98779 9.95284 23374 ft 395 kts 206°
2026-05-04 19:38 50.96300 9.93468 22748 ft 390 kts 206°
2026-05-04 19:38 50.93838 9.91670 22137 ft 387 kts 206°
2026-05-04 19:39 50.91401 9.89893 21548 ft 384 kts 206°
2026-05-04 19:39 50.88975 9.88128 20971 ft 382 kts 206°
2026-05-04 19:39 50.86569 9.86380 20423 ft 379 kts 206°
2026-05-04 19:39 50.84154 9.84622 19902 ft 376 kts 206°
2026-05-04 19:40 50.81810 9.82921 19391 ft 373 kts 206°
2026-05-04 19:40 50.79426 9.81195 18876 ft 371 kts 206°
2026-05-04 19:40 50.77089 9.79501 18382 ft 368 kts 206°
2026-05-04 19:40 50.74772 9.77821 17834 ft 366 kts 206°
2026-05-04 19:41 50.72470 9.76152 17282 ft 363 kts 206°
2026-05-04 19:41 50.70178 9.74493 16747 ft 360 kts 205°
2026-05-04 19:41 50.67918 9.72861 16228 ft 357 kts 205°
2026-05-04 19:41 50.65665 9.71237 15715 ft 355 kts 205°
2026-05-04 19:42 50.63419 9.69623 15203 ft 352 kts 205°
2026-05-04 19:42 50.61193 9.68021 14719 ft 350 kts 205°
2026-05-04 19:42 50.59009 9.66449 14229 ft 347 kts 205°
2026-05-04 19:42 50.56796 9.64858 13738 ft 345 kts 205°
2026-05-04 19:43 50.54618 9.63296 13190 ft 342 kts 205°
2026-05-04 19:43 50.52528 9.61525 12679 ft 339 kts 212°
2026-05-04 19:43 50.50641 9.59350 12170 ft 336 kts 220°
2026-05-04 19:43 50.48976 9.56805 11660 ft 333 kts 227°
2026-05-04 19:44 50.47992 9.54915 11310 ft 331 kts 232°
2026-05-04 19:44 50.46761 9.51911 11016 ft 322 kts 240°
2026-05-04 19:44 50.45579 9.47777 10992 ft 308 kts 248°
2026-05-04 19:44 50.44937 9.44532 10988 ft 313 kts 251°
2026-05-04 19:45 50.44516 9.42309 10996 ft 314 kts 251°
2026-05-04 19:45 50.43890 9.39028 10990 ft 314 kts 251°
2026-05-04 19:45 50.43266 9.35757 10994 ft 314 kts 251°
2026-05-04 19:45 50.42632 9.32452 10987 ft 314 kts 251°
2026-05-04 19:46 50.42015 9.29221 10972 ft 303 kts 251°
2026-05-04 19:46 50.41425 9.26118 10860 ft 291 kts 251°
2026-05-04 19:46 50.40842 9.23183 10726 ft 272 kts 249°
2026-05-04 19:46 50.40241 9.20490 10604 ft 252 kts 247°
2026-05-04 19:47 50.39647 9.17975 10286 ft 243 kts 246°
2026-05-04 19:47 50.39056 9.15513 10022 ft 240 kts 246°
2026-05-04 19:47 50.38472 9.13067 9700 ft 239 kts 246°
2026-05-04 19:47 50.37896 9.10634 9362 ft 238 kts 247°
2026-05-04 19:48 50.37326 9.08207 9018 ft 237 kts 247°
2026-05-04 19:48 50.36760 9.05791 8670 ft 236 kts 247°
2026-05-04 19:48 50.36198 9.03391 8328 ft 235 kts 247°
2026-05-04 19:48 50.35633 9.00978 7966 ft 235 kts 247°
2026-05-04 19:49 50.35061 8.98596 7613 ft 233 kts 242°
2026-05-04 19:49 50.34051 8.96704 7258 ft 227 kts 211°
2026-05-04 19:49 50.32565 8.96005 6893 ft 227 kts 179°
2026-05-04 19:49 50.31060 8.96718 6510 ft 231 kts 147°
2026-05-04 19:50 50.29968 8.98575 6209 ft 234 kts 127°
2026-05-04 19:50 50.29084 9.00746 6051 ft 238 kts 124°
2026-05-04 19:50 50.28207 9.02974 5898 ft 238 kts 124°
2026-05-04 19:50 50.27340 9.05180 5745 ft 238 kts 124°
2026-05-04 19:51 50.26472 9.07375 5593 ft 237 kts 124°
2026-05-04 19:51 50.25363 9.09223 5431 ft 232 kts 152°
2026-05-04 19:51 50.23831 9.09860 5282 ft 229 kts 184°
2026-05-04 19:51 50.22343 9.09089 5142 ft 229 kts 215°
2026-05-04 19:52 50.21129 9.07472 5043 ft 231 kts 223°
2026-05-04 19:52 50.19962 9.05704 5025 ft 231 kts 224°
2026-05-04 19:52 50.18816 9.03937 5024 ft 232 kts 224°
2026-05-04 19:52 50.17670 9.02166 5025 ft 232 kts 224°
2026-05-04 19:53 50.16523 9.00391 5023 ft 232 kts 224°
2026-05-04 19:53 50.15400 8.98581 5012 ft 229 kts 232°
2026-05-04 19:53 50.14730 8.96446 5011 ft 212 kts 249°
2026-05-04 19:53 50.14261 8.94355 5009 ft 195 kts 249°
2026-05-04 19:54 50.13822 8.92435 5048 ft 182 kts 248°
2026-05-04 19:54 50.13390 8.90583 5034 ft 181 kts 248°
2026-05-04 19:54 50.12954 8.88725 5017 ft 180 kts 248°
2026-05-04 19:54 50.12524 8.86897 4993 ft 181 kts 248°
2026-05-04 19:55 50.12087 8.85035 4820 ft 180 kts 248°
2026-05-04 19:55 50.11661 8.83228 4596 ft 180 kts 248°
2026-05-04 19:55 50.11230 8.81398 4344 ft 180 kts 249°
2026-05-04 19:55 50.10800 8.79573 4091 ft 179 kts 249°
2026-05-04 19:56 50.10372 8.77761 3830 ft 179 kts 249°
2026-05-04 19:56 50.09942 8.75942 3579 ft 178 kts 249°
2026-05-04 19:56 50.09514 8.74132 3353 ft 178 kts 250°
2026-05-04 19:56 50.09087 8.72328 3098 ft 177 kts 250°
2026-05-04 19:57 50.08660 8.70525 2851 ft 177 kts 250°
2026-05-04 19:57 50.08237 8.68736 2597 ft 177 kts 250°
2026-05-04 19:57 50.07813 8.66951 2353 ft 176 kts 251°
2026-05-04 19:57 50.07387 8.65156 2095 ft 176 kts 251°
2026-05-04 19:58 50.06970 8.63401 1843 ft 165 kts 251°
2026-05-04 19:58 50.06583 8.61779 1625 ft 154 kts 252°
2026-05-04 19:58 50.06225 8.60273 1407 ft 147 kts 251°
2026-05-04 19:58 50.05873 8.58793 1196 ft 145 kts 251°
2026-05-04 19:59 50.05536 8.57355 977 ft 143 kts 252°
2026-05-04 19:59 50.05184 8.55886 780 ft 142 kts 251°
2026-05-04 19:59 50.04843 8.54458 592 ft 141 kts 251°
2026-05-04 19:59 50.04499 8.53027 391 ft 140 kts 250°
2026-05-04 20:00 50.04191 8.51741 337 ft 105 kts 250°
2026-05-04 20:00 50.04010 8.50979 327 ft 51 kts 249°
2026-05-04 20:00 50.03901 8.50547 325 ft 36 kts 244°
2026-05-04 20:00 50.03788 8.50314 324 ft 21 kts 218°
2026-05-04 20:01 50.03699 8.50198 324 ft 14 kts 214°
2026-05-04 20:01 50.03637 8.50199 323 ft 6 kts 137°
2026-05-04 20:01 50.03625 8.50253 325 ft 10 kts 92°
2026-05-04 20:01 50.03654 8.50394 326 ft 13 kts 69°
2026-05-04 20:02 50.03675 8.50482 327 ft 7 kts 70°
2026-05-04 20:02 50.03694 8.50564 326 ft 13 kts 69°
2026-05-04 20:02 50.03736 8.50739 330 ft 17 kts 68°
2026-05-04 20:02 50.03779 8.50914 332 ft 17 kts 70°
2026-05-04 20:03 50.03824 8.51102 331 ft 20 kts 69°
2026-05-04 20:03 50.03873 8.51309 333 ft 21 kts 70°
2026-05-04 20:03 50.03925 8.51526 335 ft 22 kts 70°
2026-05-04 20:03 50.03978 8.51750 341 ft 22 kts 69°
2026-05-04 20:04 50.04034 8.51980 341 ft 23 kts 71°
2026-05-04 20:04 50.04086 8.52200 353 ft 21 kts 70°
2026-05-04 20:04 50.04140 8.52421 348 ft 22 kts 70°
2026-05-04 20:04 50.04195 8.52654 352 ft 23 kts 69°
2026-05-04 20:05 50.04253 8.52894 359 ft 24 kts 70°
2026-05-04 20:05 50.04309 8.53132 360 ft 23 kts 70°
2026-05-04 20:05 50.04365 8.53364 367 ft 23 kts 69°
2026-05-04 20:05 50.04400 8.53589 367 ft 21 kts 85°
2026-05-04 20:06 50.04415 8.53822 365 ft 22 kts 84°
2026-05-04 20:06 50.04430 8.54049 370 ft 20 kts 84°
2026-05-04 20:06 50.04442 8.54231 371 ft 14 kts 84°
2026-05-04 20:06 50.04452 8.54382 365 ft 13 kts 86°
2026-05-04 20:07 50.04446 8.54518 365 ft 12 kts 103°
2026-05-04 20:07 50.04413 8.54633 365 ft 11 kts 123°
2026-05-04 20:07 50.04365 8.54718 365 ft 10 kts 138°
2026-05-04 20:07 50.04334 8.54752 365 ft 0 kts 149°
2026-05-04 20:08 50.04333 8.54752 365 ft 1 kts 149°
2026-05-04 20:09 50.04283 8.54790 369 ft 11 kts 161°
2026-05-04 20:09 50.04199 8.54836 365 ft 13 kts 160°
2026-05-04 20:09 50.04121 8.54880 367 ft 9 kts 160°
2026-05-04 20:09 50.04077 8.54905 364 ft 3 kts 159°
2026-05-04 20:10 50.04076 8.54906 364 ft 0 kts 159°
2026-05-04 20:10 50.04004 8.54949 368 ft 15 kts 158°
2026-05-04 20:11 50.03916 8.55001 367 ft 13 kts 159°
2026-05-04 20:11 50.03846 8.55067 365 ft 11 kts 112°
2026-05-04 20:11 50.03865 8.55185 366 ft 13 kts 69°
2026-05-04 20:11 50.03897 8.55318 366 ft 13 kts 70°
2026-05-04 20:12 50.03931 8.55460 366 ft 18 kts 69°
2026-05-04 20:12 50.03977 8.55651 367 ft 18 kts 69°
2026-05-04 20:12 50.04014 8.55807 370 ft 10 kts 69°
2026-05-04 20:12 50.04028 8.55866 371 ft 2 kts 69°
2026-05-04 20:13 50.04030 8.55874 370 ft 0 kts 69°
2026-05-04 20:14 50.04042 8.55922 367 ft 8 kts 68°
2026-05-04 20:14 50.04083 8.55968 368 ft 7 kts 14°
2026-05-04 20:14 50.04128 8.55953 367 ft 9 kts 339°
2026-05-04 20:15 50.04164 8.55932 366 ft 0 kts 339°
2026-05-04 20:15 50.04211 8.55916 372 ft 12 kts 11°
2026-05-04 20:15 50.04280 8.55962 365 ft 10 kts
2026-05-04 20:15 50.04364 8.55921 369 ft 14 kts 348°
2026-05-04 20:16 50.04424 8.56006 365 ft 12 kts 66°
2026-05-04 20:16 50.04452 8.56119 368 ft 10 kts 69°
2026-05-04 20:16 50.04474 8.56212 369 ft 8 kts 70°
2026-05-04 20:16 50.04470 8.56251 370 ft 3 kts 143°
2026-05-04 20:17 50.04447 8.56263 365 ft 3 kts 164°
2026-05-04 20:17 50.04427 8.56272 369 ft 3 kts 165°
2026-05-04 20:17 50.04418 8.56276 367 ft 0 kts 164°
2026-05-04 20:17 50.04417 8.56276 367 ft 1 kts 164°
2026-05-04 20:18 50.04416 8.56277 367 ft 0 kts 164°